Weather History for KSUN - November, 2012

Change the Weather History Date:

Friday, November 30, 2012

  Actual Average Record
Temperature  
Mean Temperature 38 °F -  
Max Temperature 41 °F 36 °F 111 °F (2002)
Min Temperature 35 °F 18 °F 3 °F (2006)
Degree Days  
Heating Degree Days 27    
Moisture  
Dew Point 36 °F    
Average Humidity 95    
Maximum Humidity 100    
Minimum Humidity 81    
Precipitation  
Precipitation 0.00 in - - ()
Sea Level Pressure  
Sea Level Pressure 29.89 in    
Wind  
Wind Speed 7 mph (NW)    
Max Wind Speed 14 mph    
Max Gust Speed -    
Visibility 7 miles    
Events Rain    
Averages and records for this station are not official NWS values.
T = Trace of Precipitation, MM = Missing Value Source: NWS Daily Summary

Daily Weather History Graph

Daily Weather History Graph

Search for Another Location

Airport or City:

Trip Planner

Search our weather history database for the weather conditions in past years. The results will help you decide how hot, cold, wet, or windy it might be!

Date:

Astronomy

Nov. 30, 2012 Rise Set
Actual Time 7:49 AM MST 5:02 PM MST
Civil Twilight 7:17 AM MST 5:34 PM MST
Nautical Twilight 6:42 AM MST 6:09 PM MST
Astronomical Twilight 6:07 AM MST 6:44 PM MST
Moon 7:01 PM MST (11/30) 9:24 AM MST (11/30)
Length of Visible Light 10h 16m
Length of Day
9h 12m
Waning Gibbous, 96% of the Moon is Illuminated
Nov 30
Waning Gibbous
Dec 6
Last Quarter
Dec 13
New
Dec 19
First Quarter
Dec 28
Full

Hourly Weather History & Observations

Time (MST) Temp. Windchill Dew Point Humidity Pressure Visibility Wind Dir Wind Speed Gust Speed Precip Events Conditions
12:15 AM 37.4 °F 32.8 °F 32.0 °F 81% 29.98 in 10.0 mi NW 5.8 mph - N/A   Overcast
12:35 AM 37.4 °F 31.4 °F 32.0 °F 81% 29.97 in 10.0 mi NW 8.1 mph - N/A   Overcast
12:55 AM 37.4 °F 31.4 °F 32.0 °F 81% 29.96 in 10.0 mi NW 8.1 mph - N/A   Overcast
1:15 AM 37.4 °F 31.4 °F 32.0 °F 81% 29.96 in 10.0 mi NW 8.1 mph - N/A   Overcast
1:35 AM 37.4 °F 30.8 °F 33.8 °F 87% 29.96 in 10.0 mi NW 9.2 mph - N/A   Overcast
1:55 AM 37.4 °F 30.3 °F 33.8 °F 87% 29.94 in 7.0 mi NW 10.4 mph - N/A Rain Light Rain
2:15 AM 37.4 °F 30.3 °F 33.8 °F 87% 29.93 in 10.0 mi NW 10.4 mph - N/A   Overcast
2:35 AM 37.4 °F 32.1 °F 33.8 °F 87% 29.93 in 10.0 mi NW 6.9 mph - N/A   Overcast
2:55 AM 35.6 °F 30.7 °F 33.8 °F 93% 29.91 in 10.0 mi NW 5.8 mph - N/A   Overcast
3:15 AM 35.6 °F 32.8 °F 33.8 °F 93% 29.91 in 10.0 mi NNW 3.5 mph - N/A   Overcast
3:35 AM 35.6 °F 29.2 °F 33.8 °F 93% 29.90 in 10.0 mi NW 8.1 mph - N/A   Overcast
3:55 AM 37.4 °F 32.1 °F 33.8 °F 87% 29.90 in 10.0 mi NW 6.9 mph - N/A Rain Light Rain
4:15 AM 37.4 °F 31.4 °F 35.6 °F 93% 29.89 in 10.0 mi NNW 8.1 mph - N/A   Light Drizzle
4:35 AM 35.6 °F 30.7 °F 35.6 °F 100% 29.90 in 7.0 mi NW 5.8 mph - N/A Rain Rain
4:55 AM 35.6 °F 31.7 °F 35.6 °F 100% 29.90 in 4.0 mi NW 4.6 mph - N/A Rain Rain
5:15 AM 35.6 °F 30.7 °F 35.6 °F 100% 29.90 in 3.0 mi North 5.8 mph - N/A Rain Light Rain
5:35 AM 35.6 °F 30.7 °F 35.6 °F 100% 29.90 in 10.0 mi WNW 5.8 mph - N/A   Light Drizzle
5:55 AM 35.6 °F 31.7 °F 35.6 °F 100% 29.89 in 4.0 mi North 4.6 mph - N/A Rain Light Rain
6:47 AM 37.4 °F 33.8 °F 37.4 °F 100% 29.88 in 4.0 mi NW 4.6 mph - N/A Rain Rain
7:47 AM 37.4 °F 34.9 °F 37.4 °F 100% 29.88 in 3.0 mi WNW 3.5 mph - N/A Rain Rain
8:47 AM 37.4 °F - 37.4 °F 100% 29.88 in 2.0 mi Calm Calm - N/A Rain Light Rain
9:47 AM 39.2 °F 33.6 °F 39.2 °F 100% 29.88 in 2.0 mi SE 8.1 mph - N/A Rain Rain
10:48 AM 39.2 °F - 37.4 °F 93% 29.86 in 3.0 mi Calm Calm - N/A Rain Rain
11:47 AM 37.4 °F 33.8 °F 37.4 °F 100% 29.85 in 3.0 mi WNW 4.6 mph - N/A Rain Rain
12:55 PM 37.4 °F 33.8 °F 37.4 °F 100% 29.83 in 3.0 mi West 4.6 mph - N/A Rain Rain
1:52 PM 39.2 °F 32.0 °F 39.2 °F 100% 29.82 in 3.0 mi ESE 11.5 mph - N/A Rain Light Rain
3:47 PM 41.0 °F 35.8 °F 39.2 °F 93% 29.83 in 4.0 mi SE 8.1 mph - N/A Rain Light Rain
4:47 PM 39.2 °F 33.6 °F 39.2 °F 100% 29.84 in 7.0 mi ESE 8.1 mph - N/A Rain Light Rain
5:53 PM 39.2 °F 34.2 °F 37.4 °F 93% 29.85 in 5.0 mi ESE 6.9 mph - N/A Rain Rain
6:55 PM 39.2 °F 31.2 °F 39.2 °F 100% 29.85 in 6.0 mi ESE 13.8 mph - N/A Rain Light Rain
7:47 PM 39.2 °F 31.2 °F 39.2 °F 100% 29.85 in 6.0 mi ESE 13.8 mph - N/A Rain Light Rain
8:47 PM 39.2 °F 32.0 °F 39.2 °F 100% 29.86 in 6.0 mi ESE 11.5 mph - N/A Rain Light Rain
9:47 PM 39.2 °F 32.0 °F 37.4 °F 93% 29.88 in 5.0 mi ESE 11.5 mph - N/A Rain Light Rain
10:15 PM 37.4 °F 33.8 °F 37.4 °F 100% 29.88 in 10.0 mi SSE 4.6 mph - N/A   Overcast
10:35 PM 37.4 °F 33.8 °F 37.4 °F 100% 29.89 in 10.0 mi SSE 4.6 mph - N/A   Overcast
10:47 PM 37.4 °F 32.8 °F 37.4 °F 100% 29.89 in 7.0 mi ESE 5.8 mph - N/A   Overcast
10:55 PM 37.4 °F 34.9 °F 37.4 °F 100% 29.89 in 10.0 mi South 3.5 mph - N/A   Overcast
11:15 PM 37.4 °F 33.8 °F 37.4 °F 100% 29.90 in 10.0 mi South 4.6 mph - N/A   Light Drizzle
11:35 PM 37.4 °F 32.8 °F 37.4 °F 100% 29.90 in 5.0 mi SSE 5.8 mph - N/A Rain Rain
11:55 PM 37.4 °F 33.8 °F 37.4 °F 100% 29.90 in 5.0 mi SSE 4.6 mph - N/A   Light Drizzle